Content
SEND FEEDBACK

Daily
Averages
Monthly
Summary
Iran

MASHHAD, IRAN


Home > Middle East > Iran
Elevation: 3214 feet     Latitude: 36 16N     Longitude: 059 38E

WEATHER
 
SELECT A DAY
Number of Records: 201,068;   Date Range: 2/9/98 - 9/21/14
 
SHARE

PRINT THIS DATA

[ ← Previous Day ]
WEATHER ALMANAC - FEBRUARY 14, 2013
[ Next Day → ]
[ °C ]   °F
Weather ElementAverageHighLow
Temperature40.2 °F42.8 °F (12:20 am)37.4 °F (11:00 pm)
Dewpoint36.2 °F37.4 °F (12:50 am)33.8 °F (5:20 pm)
Humidity85.5 %93 % (3:00 am)76 % (12:20 am)
Barometer30.18 in30.32 in (9:30 pm)30.09 in (12:20 am)
Wind Speed7.1 mph13.8 mph (3:20 pm)
Weather ElementAverage
Visibility5.2 mi
Wind DirectionWSW (231.5 °)

Weather ElementTotal
Precipitation---
Heating Degree Days24.9 (Base 65)
Averaged from 73 records on February 14, 2013
WEATHER CONDITIONS BREAKOUT
WIND DIRECTION BREAKOUT
WEATHER BY HOUR - FEBRUARY 14, 2013
[ °C ]   °F
Local TimeTemperatureDewpointHumidityBarometerVisibilityWind DirectionWind SpeedGust SpeedPrecipitationEventsConditions
12:20 AM42.8 °F35.6 °F76 %30.09 in4.3 miSW (230°)6.9 mphRainRain
12:30 AM42.8 °F35.6 °F76 %30.09 in4.3 miSW (230°)6.9 mphRainRain
12:50 AM42.8 °F37.4 °F81 %30.09 in4.3 miEast (90°)4.6 mphRainLight Rain
1:20 AM41.0 °F37.4 °F87 %30.12 in3.7 miWest (260°)9.2 mphRainLight Rain
1:30 AM41.0 °F37.4 °F87 %30.12 in3.7 miWest (260°)9.2 mphRainLight Rain
2:00 AM39.2 °F35.6 °F87 %30.12 in3.7 miWest (270°)9.2 mphRainRain
2:20 AM39.2 °F35.6 °F87 %30.12 in3.7 miWSW (240°)6.9 mphRainRain
2:30 AM39.2 °F35.6 °F87 %30.12 in3.7 miWSW (240°)6.9 mphRainRain
3:00 AM39.2 °F37.4 °F93 %30.12 in4.3 miSSW (200°)4.6 mphRainLight Rain
3:20 AM39.2 °F35.6 °F87 %30.12 in4.3 miSSE (150°)6.9 mphRainLight Rain
3:30 AM39.0 °F36.0 °F86 %30.12 in4.0 miSSE (150°)6.7 mphRainLight Rain
3:30 AM39.2 °F35.6 °F87 %30.12 in4.3 miSSE (150°)6.9 mphRainLight Rain
4:00 AM39.2 °F37.4 °F93 %30.09 in5.0 miWNW (300°)4.6 mphOvercast
4:20 AM39.2 °F37.4 °F93 %30.12 in5.0 miWSW (240°)4.6 mphLight Drizzle
4:30 AM39.2 °F37.4 °F93 %30.12 in5.0 miWSW (240°)4.6 mphLight Drizzle
5:00 AM39.2 °F37.4 °F93 %30.12 in5.0 miWNW (290°)11.5 mphLight Drizzle
5:20 AM39.2 °F37.4 °F93 %30.12 in4.3 miWNW (300°)6.9 mphRainRain
5:30 AM39.2 °F37.4 °F93 %30.12 in4.3 miWNW (300°)6.9 mphRainRain
5:50 AM41.0 °F37.4 °F87 %30.12 in4.3 miNW (310°)6.9 mphRainLight Rain
6:20 AM39.2 °F37.4 °F93 %30.15 in3.1 miNorth (360°)6.9 mphRainRain
6:30 AM39.2 °F37.4 °F93 %30.15 in3.1 miNorth (360°)6.9 mphRainRain
7:00 AM41.0 °F37.4 °F87 %30.15 in5.0 miNNW (340°)11.5 mphRainLight Rain
7:20 AM41.0 °F37.4 °F87 %30.15 in5.0 miNNW (340°)11.5 mphRainLight Rain
7:30 AM41.0 °F37.4 °F87 %30.15 in5.0 miNNW (340°)11.5 mphRainLight Rain
8:00 AM41.0 °F35.6 °F81 %30.15 in6.2 miNNW (330°)9.2 mphRainLight Rain
8:20 AM41.0 °F35.6 °F81 %30.15 in6.2 miNW (310°)6.9 mphRainLight Rain
8:30 AM41.0 °F35.6 °F81 %30.15 in6.2 miNW (310°)6.9 mphRainLight Rain
8:55 AM41.0 °F35.6 °F81 %30.18 in6.2 miWest (270°)6.9 mphOvercast
9:20 AM41.0 °F35.6 °F81 %30.18 in6.2 miWest (260°)9.2 mphRainLight Rain
9:30 AM40.0 °F36.0 °F82 %30.23 in6.0 miWest (260°)8.9 mphRainLight Rain
9:30 AM41.0 °F35.6 °F81 %30.18 in6.2 miWest (260°)9.2 mphRainLight Rain
9:55 AM39.2 °F37.4 °F93 %30.21 in5.0 miNW (310°)11.5 mphRainRain
10:20 AM41.0 °F37.4 °F87 %30.21 in6.2 miNNW (330°)4.6 mphRainLight Rain
10:30 AM41.0 °F37.4 °F87 %30.21 in6.2 miNNW (330°)4.6 mphRainLight Rain
10:55 AM39.2 °F35.6 °F87 %30.21 in6.2 miNNW (340°)11.5 mphRainLight Rain
11:20 AM39.2 °F35.6 °F87 %30.21 in6.2 miNNW (330°)9.2 mphRainLight Rain
11:30 AM39.2 °F35.6 °F87 %30.21 in6.2 miNNW (330°)9.2 mphRainLight Rain
12:00 PM39.2 °F35.6 °F87 %30.21 in6.2 miWNW (300°)6.9 mphRainLight Rain
12:20 PM41.0 °F35.6 °F81 %30.18 in6.2 miNorth (10°)4.6 mphRainLight Rain
12:30 PM41.0 °F35.6 °F81 %30.18 in6.2 miNorth (10°)4.6 mphRainLight Rain
12:55 PM41.0 °F35.6 °F81 %30.18 in6.2 miNNW (330°)4.6 mphRainLight Rain
1:20 PM41.0 °F37.4 °F87 %30.18 in6.2 miNorth (10°)6.9 mphRainLight Rain
1:30 PM41.0 °F37.4 °F87 %30.18 in6.2 miNorth (10°)6.9 mphRainLight Rain
2:00 PM41.0 °F37.4 °F87 %30.18 in6.2 miWNW (290°)9.2 mphRainLight Rain
2:20 PM41.0 °F37.4 °F87 %30.18 in5.0 miWNW (300°)9.2 mphRainLight Rain
2:30 PM41.0 °F37.4 °F87 %30.18 in5.0 miWNW (300°)9.2 mphRainLight Rain
3:00 PM41.0 °F37.4 °F87 %30.18 in6.2 miWNW (300°)9.2 mphRainRain
3:20 PM41.0 °F37.4 °F87 %30.21 in5.0 miNorth (360°)13.8 mphRainRain
3:30 PM41.0 °F36.0 °F78 %30.27 in5.0 miNorth13.4 mphRainHeavy Rain
3:30 PM41.0 °F37.4 °F87 %30.21 in5.0 miNorth (360°)13.8 mphRainRain
4:00 PM39.2 °F35.6 °F87 %30.21 in3.7 miNorth (350°)11.5 mphRainRain
4:20 PM41.0 °F35.6 °F81 %30.21 in3.1 miNW (320°)9.2 mphRainRain
4:30 PM41.0 °F35.6 °F81 %30.21 in3.1 miNW (320°)9.2 mphRainRain
5:00 PM41.0 °F35.6 °F81 %30.21 in3.1 miWNW (290°)6.9 mphDrizzle
5:20 PM41.0 °F33.8 °F76 %30.21 in3.1 miWNW (290°)6.9 mphRainLight Rain
5:30 PM41.0 °F33.8 °F76 %30.21 in3.1 miWNW (290°)6.9 mphRainLight Rain
6:00 PM41.0 °F35.6 °F81 %30.21 in3.7 miWSW (250°)6.9 mphOvercast
6:20 PM41.0 °F33.8 °F76 %30.24 in4.3 miWest (280°)6.9 mphLight Drizzle
7:20 PM41.0 °F35.6 °F81 %30.24 in6.2 miWest (260°)4.6 mphOvercast
7:30 PM41.0 °F35.6 °F81 %30.24 in6.2 miWest (260°)4.6 mphOvercast
8:00 PM41.0 °F35.6 °F81 %30.24 in6.2 miCalmOvercast
8:20 PM41.0 °F35.6 °F81 %30.24 in6.2 miEast (100°)4.6 mphOvercast
8:30 PM41.0 °F35.6 °F81 %30.24 in6.2 miEast (100°)4.6 mphOvercast
9:00 PM39.2 °F35.6 °F87 %30.24 in6.2 miSE (140°)4.6 mphScattered Clouds
9:20 PM39.2 °F35.6 °F87 %30.24 in6.2 miSE (140°)4.6 mphScattered Clouds
9:30 PM40.0 °F36.0 °F81 %30.32 in6.0 miSE (140°)4.5 mphPartly Cloudy
9:30 PM39.2 °F35.6 °F87 %30.24 in6.2 miSE (140°)4.6 mphScattered Clouds
10:00 PM39.2 °F35.6 °F87 %30.27 in6.2 miSSW (200°)4.6 mphScattered Clouds
10:20 PM39.2 °F35.6 °F87 %30.27 in6.2 miCalmScattered Clouds
10:30 PM39.2 °F35.6 °F87 %30.27 in6.2 miCalmScattered Clouds
11:00 PM37.4 °F35.6 °F93 %30.24 in6.2 miNE (50°)6.9 mphScattered Clouds
11:20 PM37.4 °F35.6 °F93 %30.24 in6.2 miESE (120°)4.6 mphScattered Clouds
11:30 PM37.4 °F35.6 °F93 %30.24 in6.2 miESE (120°)4.6 mphScattered Clouds
Hourly data recorded from OIMM, located miles away from Mashhad, Iran







STORIES FROM OUR PARTNERS